Wind_Speed
40 42 41 37 32 30 27 15 15 19 17 15 12 9 7 5 4 4 6 7 9 17 23 27 31 32 31 33 29 27 28 30 21 33 35 36 34 33 33 37 36 33 34
38 38 40 35 28 23 14 5 16 22 18 15 12 10 7 5 4 4 5 7 13 20 26 30 34 33 30 33 30 30 32 35 36 29 37 35 38 33 32 31 33 30 30
31 33 32 32 33 31 23 23 23 28 22 16 14 9 8 6 5 5 6 10 16 22 27 30 31 27 30 29 32 33 36 37 37 35 34 38 36 31 30 32 31 33 33
30 31 32 31 30 29 28 34 34 27 21 15 11 8 6 4 4 6 7 12 18 23 28 29 27 25 28 31 35 39 42 39 38 33 33 34 30 27 25 23 21 27 29
28 29 29 29 28 26 27 25 24 22 18 15 10 8 6 6 5 6 9 14 18 25 30 32 30 28 27 31 40 44 46 42 37 31 26 27 26 19 16 20 22 23 24
26 27 28 28 26 27 24 24 20 18 14 11 9 9 8 7 6 8 11 16 20 25 29 32 31 27 29 35 41 48 48 39 36 27 24 20 26 21 21 20 19 16 7
24 26 26 25 27 23 20 18 14 14 11 10 11 10 8 7 8 10 12 16 21 24 27 30 25 26 31 35 44 46 42 38 31 27 25 26 25 23 21 19 19 19 16
22 21 22 28 26 22 18 15 14 13 12 11 11 9 9 8 9 11 12 17 21 22 25 24 23 26 29 37 44 39 41 38 38 35 28 34 30 23 23 24 18 16 19
20 22 25 29 24 20 18 18 17 16 14 12 11 9 10 9 10 8 12 17 19 21 22 22 24 27 31 34 38 36 42 43 43 41 32 23 28 26 22 19 13 9 7
22 23 26 28 24 22 20 20 18 16 14 12 10 8 9 9 7 5 12 14 18 20 20 22 22 25 27 31 32 34 36 40 38 42 39 16 12 19 17 17 14 7 8
15 20 26 28 25 21 17 18 16 15 13 11 10 7 7 6 3 6 9 13 16 18 18 20 20 21 25 30 31 35 36 39 32 37 34 34 15 4 8 12 16 15 10
12 19 26 26 23 18 16 16 15 14 13 11 10 7 5 5 2 4 7 12 14 15 15 17 16 17 23 29 32 32 38 42 37 33 37 35 31 25 14 5 8 8 3
13 21 26 25 21 17 17 16 14 12 12 11 9 6 7 6 1 4 9 12 12 14 12 13 14 17 22 27 31 34 36 40 32 33 32 29 34 31 36 30 20 24 33
18 24 26 23 18 14 13 13 11 10 10 8 6 6 10 7 2 5 11 12 13 14 13 14 17 20 23 25 30 33 34 30 29 31 29 31 31 33 35 31 30 14 30
18 21 20 16 13 12 11 10 7 5 8 10 10 11 15 10 5 7 10 12 13 13 14 19 23 26 27 27 27 30 32 33 33 28 28 30 30 31 34 34 32 30 29
15 13 14 12 11 12 13 9 5 5 7 8 7 14 14 10 9 8 7 8 12 12 18 19 19 19 18 18 20 21 26 29 29 27 29 26 25 27 24 27 35 27 23
8 8 7 10 11 13 8 4 6 3 3 9 16 16 14 13 10 8 7 10 13 16 19 18 15 16 19 17 18 19 20 24 24 27 28 26 24 23 24 26 23 22 22
4 3 3 6 9 11 9 9 8 9 14 17 18 18 15 13 10 7 7 8 13 17 17 17 16 16 16 17 19 19 20 21 23 25 25 27 25 21 21 20 21 18 16
5 6 6 5 7 9 8 8 8 10 16 23 21 18 14 11 9 6 6 9 11 12 14 15 15 16 16 16 17 17 19 21 21 22 23 22 23 19 19 18 17 23 20
3 3 3 4 5 9 10 10 9 11 20 24 22 21 18 10 9 7 6 7 10 11 11 13 15 17 18 18 17 17 17 20 21 22 21 21 18 19 16 18 21 17 18
4 5 6 6 4 5 5 6 7 11 19 23 22 20 17 14 10 7 7 8 8 9 10 12 14 16 17 17 18 16 16 16 18 18 20 20 19 17 16 15 15 16 16
2 2 2 4 4 3 3 4 7 12 17 18 16 14 14 12 12 9 9 10 8 8 9 11 13 15 16 16 16 16 15 15 16 17 17 18 17 15 15 15 15 15 15
4 5 5 5 6 6 5 5 9 13 14 15 15 17 12 14 14 11 12 11 9 7 8 10 12 14 15 16 17 16 16 15 14 15 13 15 13 13 11 12 14 14 15
3 3 4 5 4 4 6 8 10 14 17 18 20 16 18 17 14 13 13 12 9 7 6 8 11 13 14 16 16 15 14 13 13 12 12 13 13 13 12 11 13 14 14
4 5 6 6 6 6 8 10 13 17 20 22 17 20 18 16 14 14 13 11 8 6 5 7 9 12 13 14 16 17 14 11 11 11 11 11 11 11 10 10 10 10 12
7 6 6 7 8 11 13 14 16 17 19 20 24 22 19 16 15 15 13 10 7 4 4 6 8 10 11 13 16 17 17 16 12 11 11 11 11 11 9 9 9 8 9
Wind_Direction
221 223 227 226 226 226 225 239 254 248 233 231 225 213 216 236 261 283 304 310 326 331 331 328 322 324 318 316 308 295 285 280 278 281 274 278 276 272 267 268 266 263 263
217 220 223 225 220 220 225 217 293 266 238 231 219 212 217 231 253 271 294 313 334 329 330 327 324 324 316 316 305 294 288 281 273 278 279 274 270 271 268 259 262 258 254
214 216 215 218 219 204 201 187 216 234 237 224 222 222 211 228 236 267 294 326 330 330 329 329 325 325 317 311 301 295 294 291 282 271 273 271 264 266 261 259 257 256 254
212 213 216 219 218 210 204 205 210 218 220 220 222 211 223 242 256 281 302 322 329 329 329 330 324 325 317 306 305 301 301 297 290 276 277 265 262 260 249 252 251 246 250
208 211 215 217 216 193 188 198 201 204 211 213 212 207 229 237 265 284 307 318 324 327 330 331 326 321 310 313 314 310 305 301 294 277 267 264 260 251 231 237 241 255 255
211 212 212 211 195 187 190 190 195 199 206 210 215 218 236 245 277 289 303 309 322 328 331 334 334 329 324 321 323 318 308 301 290 276 263 253 255 243 238 233 240 248 260
214 209 204 201 189 191 193 193 201 202 210 217 221 232 248 260 272 282 290 310 321 327 335 341 331 326 331 332 331 321 323 321 314 283 259 249 256 240 230 229 236 242 247
207 204 200 191 188 192 193 200 200 206 213 222 228 244 257 260 278 274 288 310 322 332 342 347 343 333 336 346 340 327 336 335 336 323 291 264 246 241 228 232 243 276 251
202 204 201 193 189 191 199 201 201 207 212 219 228 242 247 258 273 269 301 315 329 340 341 348 351 349 346 355 350 341 347 341 342 337 318 280 252 242 229 226 239 252 268
212 210 204 193 195 199 205 201 205 213 223 220 230 240 253 270 270 290 310 326 336 342 339 346 352 356 357 6 359 353 349 338 347 355 7 12 265 248 230 225 230 239 275
218 213 203 195 201 204 208 205 213 219 224 228 228 238 264 265 229 306 323 340 344 343 345 346 354 3 14 19 12 13 1 357 356 10 17 23 28 171 224 230 234 242 296
217 212 200 201 204 210 212 213 214 220 222 227 233 245 246 209 246 315 344 355 348 350 351 353 357 9 21 28 22 21 25 23 13 12 26 23 24 37 49 112 134 125 175
218 213 205 202 205 210 210 211 212 214 222 232 245 242 208 186 221 356 11 360 359 1 1 3 14 21 26 31 30 31 25 27 13 16 17 21 29 37 56 58 67 72 72
216 214 204 201 199 209 210 209 209 211 218 236 239 213 179 168 105 36 30 14 12 8 10 12 17 25 27 32 30 31 30 27 22 19 16 22 31 32 42 37 38 46 62
225 216 205 203 204 193 181 165 172 207 240 249 256 209 176 159 120 64 44 27 25 23 25 29 24 22 20 22 26 30 31 35 31 21 27 28 32 38 39 44 46 42 52
238 220 213 205 196 183 164 152 180 253 263 257 233 180 156 136 109 82 66 50 41 32 40 37 23 21 15 7 14 17 28 34 34 30 36 29 28 34 37 42 54 45 46
247 244 220 203 189 170 172 202 232 287 142 142 151 158 145 128 118 104 87 61 51 41 47 41 31 24 20 16 21 25 23 32 40 44 42 34 27 27 34 34 38 37 38
234 252 210 218 198 195 212 229 229 194 157 149 155 149 139 126 118 114 93 63 52 47 48 43 34 27 25 27 28 31 31 32 41 44 42 41 34 29 29 30 32 34 40
215 225 232 239 246 245 229 226 229 198 178 165 159 157 148 139 131 116 89 77 73 56 51 49 38 32 29 32 38 41 42 40 40 43 41 37 39 33 35 31 33 37 37
243 252 244 242 278 271 256 239 217 187 180 174 171 167 163 156 152 122 104 110 87 71 57 50 41 39 36 35 39 41 44 42 42 41 38 37 29 37 33 32 38 33 30
255 251 246 263 274 265 234 219 196 178 177 179 183 181 186 179 170 148 144 140 107 85 66 49 41 39 37 34 36 38 41 40 40 42 40 38 36 32 35 33 34 34 29
281 234 191 181 148 132 136 174 176 170 175 173 174 181 179 193 179 162 161 145 122 98 74 52 43 37 34 32 33 35 35 35 35 36 36 36 36 35 35 34 35 35 33
131 126 125 122 142 143 134 152 150 156 166 175 180 160 153 180 169 165 158 149 134 107 72 52 43 35 32 31 29 29 30 31 29 26 26 26 25 28 35 35 33 34 34
185 213 203 172 159 157 139 139 139 155 156 161 158 155 168 164 163 160 158 152 141 119 81 55 41 33 32 32 29 28 30 29 28 25 22 18 20 25 30 29 27 29 30
158 156 153 158 149 129 129 135 139 149 153 147 167 173 161 158 158 162 162 156 147 125 91 59 44 36 33 33 32 30 26 21 22 20 18 16 20 26 29 27 25 28 31
155 143 148 133 131 134 133 135 153 157 162 172 170 162 156 156 160 162 162 161 153 134 88 57 41 36 35 33 31 29 27 25 22 18 19 22 27 31 33 37 38 42 42
Height
776 780 784 785 793 798 802 806 804 815 819 821 818 816 817 815 815 815 815 814 813 812 810 807 803 799 794 790 786 782 776 770 755 745 743 740 736 734 733 732 731 730 729
768 773 777 782 791 798 801 806 815 820 819 818 817 814 812 812 811 810 811 812 810 809 806 803 798 794 789 785 780 773 766 758 748 734 731 728 724 722 721 720 720 719 719
765 769 773 777 782 784 793 801 799 811 816 814 814 811 809 807 807 807 809 809 808 806 804 800 795 790 785 779 773 764 755 745 736 726 717 716 712 712 710 710 710 709 709
760 764 767 773 777 781 788 793 795 805 808 810 810 806 806 807 806 806 806 806 805 802 800 796 790 786 779 771 765 754 742 731 722 714 707 701 701 700 701 700 699 699 699
755 759 763 768 770 777 782 788 794 798 803 804 802 802 802 803 802 803 803 802 801 798 794 789 785 780 774 768 759 744 732 720 709 701 695 692 689 691 690 691 692 693 692
751 755 759 763 767 774 779 784 790 793 795 796 797 798 798 798 800 800 800 801 798 794 789 784 779 773 767 760 751 737 725 710 698 689 685 682 678 679 682 684 686 687 686
748 751 756 760 765 771 776 780 783 786 789 791 792 794 795 797 797 798 798 798 795 792 786 780 776 771 764 754 740 725 712 699 689 681 675 671 670 671 675 677 680 681 680
746 749 754 759 764 769 772 775 779 782 784 787 790 792 794 795 796 796 796 794 792 788 782 778 773 767 760 750 734 720 707 694 684 675 667 659 659 662 667 671 675 675 674
744 747 750 755 761 765 769 772 775 779 781 785 787 789 791 793 793 793 793 791 787 783 779 775 771 765 759 748 735 720 705 690 679 666 651 646 652 655 661 666 670 672 671
741 744 748 753 758 763 766 769 773 777 781 783 786 788 790 791 791 791 791 787 782 778 776 772 769 764 756 747 737 724 711 696 684 666 651 646 648 653 657 664 668 670 670
742 746 748 753 756 759 764 768 771 777 781 783 785 787 788 789 789 789 788 784 780 776 773 770 767 763 756 747 739 729 719 703 689 677 663 656 653 654 657 662 665 668 669
740 745 748 751 755 759 763 768 772 776 780 783 784 784 785 787 787 787 785 781 779 775 773 770 767 762 756 747 741 731 719 706 695 685 677 671 666 662 661 663 666 667 667
742 745 747 749 753 758 762 766 771 774 778 779 780 782 783 784 786 786 783 781 779 775 773 770 767 761 756 748 742 734 724 714 707 698 692 687 681 676 670 669 671 672 669
741 744 745 749 753 758 761 766 770 773 775 776 777 779 781 783 784 784 781 781 778 776 773 769 766 761 757 751 745 739 732 725 719 713 707 702 694 687 684 683 681 678 673
744 747 747 750 752 757 762 765 768 772 774 773 774 776 778 781 783 782 781 780 778 776 773 769 765 761 758 754 750 744 738 731 725 722 717 713 707 701 697 697 691 685 682
747 744 746 750 754 757 759 763 767 769 769 769 771 773 778 780 782 782 782 781 779 777 774 771 771 768 765 761 755 750 744 739 735 730 725 723 720 716 711 708 701 702 703
746 747 747 750 753 755 759 763 765 766 767 767 771 774 778 780 782 783 783 782 780 778 776 775 774 772 769 765 759 754 750 747 743 737 732 731 728 724 720 716 714 713 711
744 744 747 751 753 755 757 760 762 764 766 770 774 777 780 781 783 785 784 782 782 779 779 778 777 775 773 768 764 759 755 752 748 743 740 738 735 733 729 726 723 722 720
742 745 747 749 752 753 755 757 759 762 765 769 773 778 780 783 784 785 784 783 783 783 782 781 780 778 775 772 767 764 760 757 754 749 747 744 742 740 737 735 732 728 726
741 743 745 748 748 752 753 754 756 758 762 767 772 775 779 782 783 784 784 785 784 785 785 784 783 780 777 774 770 767 765 762 759 755 753 750 749 745 744 741 737 736 734
739 741 742 745 746 750 749 751 753 755 760 765 770 774 778 780 782 783 785 786 786 787 788 787 785 782 780 777 774 770 768 767 764 760 757 755 753 751 749 748 744 741 740
738 739 741 743 745 747 749 750 751 754 760 765 771 774 777 780 782 784 786 787 788 789 789 788 787 785 782 780 777 774 771 769 766 764 763 760 759 756 754 753 750 748 746
738 739 741 742 744 746 748 750 752 755 761 766 770 773 775 779 782 784 786 788 789 790 791 789 788 786 784 781 778 775 773 771 769 767 766 764 763 760 758 758 755 753 751
739 741 742 743 744 745 747 750 752 756 759 764 769 773 777 780 783 785 787 789 790 791 792 791 789 788 786 783 781 779 776 773 772 770 769 767 765 762 760 759 758 757 754
741 742 743 744 745 746 747 750 754 757 761 766 769 773 778 781 783 786 788 790 791 792 792 792 791 789 788 785 783 780 777 775 773 772 771 769 767 765 763 762 761 760 759
743 743 745 745 745 746 748 750 754 759 762 765 769 774 777 780 784 786 788 790 791 792 792 791 791 790 789 787 784 782 780 777 775 773 772 770 768 767 766 765 764 764 763